Voltar ao catálogo

TIANQI 37

AtivoComunicaçõesLEO
NORAD 67476·PAYLOAD·🇨🇳 China

Lançado Jan 15, 2026 de Yellow Sea Launch Area

Loading…

Próximas Passagens (próximas 24 horas)

TLE

AtualizadoSource: Space-Track

Época: Sep 14, 2026, 18:54 UTC

1 67476U 26010A   26257.78781133 -.00000005  00000-0  84514-4 0  9991
2 67476  44.9830  43.0614 0010735  30.4389 329.7065 13.99188709 33947

Acompanhe TIANQI 37 em tempo real com AllMySat

Download on the App Store